Preview of NWS' New Version of Forecast
This preview is not operational and should not be used for support decisions.

Regional Weather Roundup (RWR)

Issued by National Weather Service (NWS)

                            
000
ASUS43 KLSX 210807
RWRMO 

WEATHER SUMMARY FOR MISSOURI
NATIONAL WEATHER SERVICE SPRINGFIELD MO
300 AM CDT SAT SEP 21 2019

NOTE: "FAIR" INDICATES FEW OR NO CLOUDS BELOW 12,000 FEET WITH NO
       SIGNIFICANT WEATHER AND/OR OBSTRUCTIONS TO VISIBILITY.
       CURRENT SKY AND/OR WEATHER CONDITIONS ARE NOT AVAILABLE FOR
       CHILLICOTHE AND FARMINGTON.

MOZ001>031-035>038-043-044-053-054-210900-
...NORTHERN AND WESTERN MISSOURI...
  
CITY           SKY/WX    TMP DP  RH WIND       PRES   REMARKS
KANSAS CTY INT CLOUDY    72  69  90 S17       29.97S                  
KANSAS C DTWN  CLOUDY    75  68  78 S12G22    29.97S                  
LEE'S SUMMIT   CLOUDY    73  68  84 S15       29.99F                  
ST JOSEPH      CLOUDY    73  69  87 S14       29.94F                  
CHILLICOTHE      N/A     73  69  87 S9G17     30.00S                  
KIRKSVILLE     CLOUDY    73  68  84 S12       30.02F                  
     
$$
MOZ066>068-077>081-088>096-101>105-210900-
...SOUTHWEST MISSOURI...
  
CITY           SKY/WX    TMP DP  RH WIND       PRES   REMARKS
SPRINGFIELD    PTCLDY    72  67  84 S16       30.06F                  
JOPLIN         CLEAR     74  70  87 S14G24    30.01F                  
               
$$
MOZ032>034-039>042-045>050-055>058-069>072-210900-
...CENTRAL MISSOURI...  
  
CITY           SKY/WX    TMP DP  RH WIND       PRES   REMARKS
COLUMBIA       CLOUDY    75  67  76 S12       30.07S                  
JEFFERSON CITY CLOUDY    77  68  73 S7        30.06S                  
ROLLA          CLOUDY    74  66  76 S13G21    30.10F                  
SEDALIA        CLOUDY    71  68  90 S10       30.04S                  
WARRENSBURG    MOCLDY    72  66  83 S8        30.01S                  
OSAGE BEACH    CLOUDY    74  69  85 S7        30.08F                  
               
$$
MOZ051-052-059>065-210900-
...EAST CENTRAL MISSOURI...
  
CITY           SKY/WX    TMP DP  RH WIND       PRES   REMARKS
ST LOUIS INTL  CLOUDY    75  69  81 S10       30.11F                  
SPIRIT OF STL  CLOUDY    76  69  79 S6        30.08F                  
ST CHARLES       N/A    N/A N/A N/A MISG      30.09F                  
                   
$$
MOZ072>076-082>087-097>100-106>115-210900-
...SOUTH CENTRAL AND SOUTHEAST MISSOURI...
  
CITY           SKY/WX    TMP DP  RH WIND       PRES   REMARKS
CAPE GIRARDEAU FAIR      70  66  87 S6        30.14F                  
FARMINGTON     LGT RAIN  70  70 100 S5        30.15F                  
POPLAR BLUFF   CLOUDY    70  68  93 CALM      30.14S                  
WEST PLAINS    CLEAR     73  67  81 S9G17     30.14F                  
                                       
$$